Regional Weather Roundup
Issued by NWS Glasgow, MT

Home | Current Version | Previous Version | Text Only | Print | Product List | Glossary On
Versions: 1 2 3 4 5 6 7 8 9 10 11 12 13 14 15 16 17 18 19 20 21 22 23 24 25 26 27
000
ASUS45 KGGW 080715
RWRGGW
HOURLY REGIONAL WEATHER ROUNDUP FOR NORTHEAST MONTANA
NATIONAL WEATHER SERVICE GLASGOW MONTANA
1200 AM MST THU DEC 08 2016

NOTE: "FAIR" INDICATES FEW OR NO CLOUDS BELOW 12,000 FEET WITH NO
SIGNIFICANT WEATHER AND/OR OBSTRUCTIONS TO VISISBILITY.

NORTHEAST MONTANA


CITY           SKY/WX    TMP DP  RH WIND       PRES   REMARKS
GLASGOW        PTCLDY    -4 -10  75 NW10      30.64R WCI -21
PLENTYWOOD       N/A     -2  -6  83 NW14        N/A  WCI -21
WOLF POINT     CLOUDY    -1  -9  68 W10       30.67R WCI -17
JORDAN           N/A     -7 -12  79 NW3       30.61S
SIDNEY         CLEAR     -5 -10  79 W3        30.65R
GLENDIVE       CLOUDY    -1  -8  72 NW7       30.62R
MALTA            N/A     -2  -6  83 SW5         N/A
SCOBEY           N/A     -2 -12  62 W12G17    30.51S WCI -19

FORT PECK REPORTS


CITY           SKY/WX    TMP DP  RH WIND       PRES   REMARKS
FORT PECK        N/A     -2  -6  83 W16         N/A  WCI -23
THE PINES        N/A     -2  -9  72 W1          N/A

SOUTHEAST MONTANA


CITY           SKY/WX    TMP DP  RH WIND       PRES   REMARKS
BILLINGS       CLEAR      2  -5  72 CALM      30.51S
MILES CITY     CLEAR     -2  -9  72 W5        30.62S
BAKER          CLOUDY     1  -5  75 NW14      30.54S WCI -17
LIVINGSTON     CLOUDY     5  -1  76 E7        30.38F

CENTRAL MONTANA


CITY           SKY/WX    TMP DP  RH WIND       PRES   REMARKS
HAVRE          CLOUDY    -8 -13  78 S6        30.65F
LEWISTOWN      CLOUDY   -11 -17  75 SE5       30.46F
GREAT FALLS    CLOUDY     0  -7  72 E3        30.51F
CUT BANK       CLEAR    -13 -18  78 NW5       30.50S
HELENA         CLOUDY     5  -3  69 N3        30.46F
BUTTE          CLOUDY     5  -2  72 CALM      30.26F
BOZEMAN        CLOUDY     7   0  73 CALM      30.39F

WESTERN MONTANA


CITY           SKY/WX    TMP DP  RH WIND       PRES   REMARKS
MISSOULA       MOCLDY    10   4  76 NW6       30.44F
KALISPELL      NOT AVBL

NORTH DAKOTA


CITY           SKY/WX    TMP DP  RH WIND       PRES   REMARKS
WILLISTON      CLOUDY    -1  -8  72 W16       30.61R WCI -21
DICKINSON      CLEAR     -4  -9  79 NW18      30.48S WCI -26
MINOT          FLURRIES   6   0  76 W28       30.48R WCI -17
BISMARCK       LGT SNOW   5   1  83 NW23G29   30.50S FOG     WCI -17

SOUTHERN SASKATCHEWAN


CITY           SKY/WX    TMP DP  RH WIND       PRES   REMARKS
REGINA         MOCLDY     0  -6  78 NW14      30.58R WCI -19
ESTEVAN        PTCLDY    -4  -8  84 NW16      30.53S WCI -25
SWIFT CURRENT  CLOUDY    -8 -11  84 W13       30.56S WCI -28





USA.gov is the U.S. government's official web portal to all federal, state and local government web resources and services.